Temp
63 63 63 63 63 63 63 63 63 63 63 63 63 63 63 63 63 73 78 86 86 83 85 90 90 91 92 84 90 92 68 65 71 73 75 84 80 86 85 78 81 82 77 78 77
63 63 63 63 63 63 63 63 63 63 63 63 63 63 63 63 63 71 85 86 85 84 91 88 86 88 80 85 85 81 67 72 81 81 80 84 81 80 77 75 75 77 81 79 76
62 62 62 62 62 63 62 62 62 62 62 62 63 63 63 62 68 81 86 85 85 85 89 87 88 84 76 80 83 82 73 82 85 86 86 83 80 84 75 71 76 73 75 76 75
62 62 62 61 62 61 61 62 62 62 62 62 63 64 63 59 68 89 85 83 84 88 89 89 86 80 77 76 86 81 86 86 85 86 84 81 85 80 78 76 82 81 79 76 74
62 62 61 61 61 61 61 61 61 61 61 62 63 64 63 65 75 93 85 85 88 89 88 85 82 78 74 81 84 83 85 87 87 86 85 86 80 78 77 82 84 84 82 79 77
61 61 61 61 61 61 61 60 60 61 61 63 64 65 62 64 90 93 90 88 90 88 88 88 86 86 83 83 81 88 88 85 87 85 86 80 78 80 79 83 82 83 80 81 81
61 61 60 60 61 60 60 60 59 60 61 63 64 68 64 74 89 88 85 87 90 90 86 91 91 83 85 82 89 90 83 83 84 84 82 83 74 74 81 83 81 81 81 81 81
60 60 60 60 60 59 59 59 59 61 63 64 66 61 62 84 83 88 86 90 93 92 90 93 94 87 81 85 86 82 81 71 81 83 83 78 64 77 82 81 79 82 83 81 82
60 59 59 59 59 58 58 58 61 64 65 65 57 58 64 84 82 88 88 89 90 91 90 103 89 80 83 73 68 74 67 73 76 84 82 76 67 78 83 82 79 81 81 82 82
59 59 59 59 58 58 57 58 62 64 67 73 76 62 68 77 83 89 88 90 86 88 89 85 78 72 70 67 60 67 67 75 72 80 81 75 72 78 81 81 80 79 80 81 80
59 59 59 58 58 57 54 57 63 62 60 67 67 69 77 82 87 86 90 85 82 78 70 79 70 66 72 73 77 77 73 76 78 82 77 74 72 77 80 82 80 79 79 80 81
59 58 58 58 57 57 53 56 67 70 62 72 75 76 82 78 76 82 87 81 77 71 71 70 66 78 80 82 79 77 73 74 79 83 76 72 73 79 81 81 82 81 80 81 81
58 58 58 57 56 53 55 64 73 73 59 70 73 73 75 78 75 78 84 79 75 70 71 67 76 83 81 79 77 74 70 75 74 78 79 74 67 73 80 82 84 83 74 74 72
58 58 57 55 58 56 62 69 72 73 51 62 65 76 79 80 74 89 86 83 75 74 73 71 82 81 78 76 76 66 81 85 83 71 64 73 55 65 68 73 78 73 73 73 73
58 57 56 55 49 55 72 68 73 69 44 73 67 83 79 74 74 79 87 80 74 75 72 71 75 76 75 79 82 76 84 82 80 68 63 67 58 60 65 65 68 71 72 72 71
57 57 56 54 49 56 63 67 69 53 46 68 77 72 70 68 74 80 80 80 81 75 72 74 81 79 80 86 83 86 78 73 67 62 56 61 62 60 65 64 69 72 73 74 74
56 55 54 59 57 64 63 65 51 44 68 67 67 70 65 65 70 72 69 66 66 59 59 70 74 79 83 74 80 75 63 54 54 53 54 60 62 65 73 73 71 70 71 73 74
54 54 53 56 53 59 62 57 42 60 61 70 71 67 66 67 66 68 64 63 69 65 59 59 60 72 81 76 73 72 67 55 49 50 55 60 52 63 70 70 69 71 72 73 70
54 51 54 58 60 60 59 45 49 57 69 69 68 62 61 70 69 67 63 63 71 70 64 57 62 78 80 83 80 71 63 68 59 53 54 55 60 68 72 70 71 69 69 68 69
48 47 54 66 65 61 54 48 54 67 70 69 58 64 59 65 66 63 64 71 73 77 72 66 60 73 79 80 81 76 76 63 56 50 46 53 54 56 65 61 66 65 64 66 68
48 53 66 69 66 58 48 49 61 71 73 66 64 63 63 65 65 61 66 73 77 77 73 66 63 73 70 67 70 71 65 63 61 56 51 47 52 61 61 64 62 64 65 65 68
47 50 69 74 56 51 49 58 63 69 72 70 71 69 66 68 63 63 67 73 81 82 72 70 61 59 65 76 78 74 70 65 61 56 53 51 53 66 65 67 65 66 68 70 70
43 50 69 69 51 51 56 64 67 68 69 69 69 74 72 65 60 67 71 83 82 77 72 70 58 56 62 66 71 70 68 63 60 55 53 50 53 66 64 66 68 66 67 66 69
44 48 59 61 58 54 53 59 61 74 72 73 72 69 68 62 63 66 69 80 83 80 76 75 58 59 58 61 63 63 69 66 63 54 52 53 54 60 61 65 65 64 66 68 67
45 50 57 51 56 56 54 61 62 63 70 70 68 70 67 58 63 63 68 72 81 75 72 71 60 58 61 67 68 68 70 69 63 61 58 58 57 60 64 65 64 65 67 67 66
45 50 54 52 56 56 53 58 63 66 67 68 65 73 71 63 66 67 64 62 68 72 69 66 61 59 58 67 71 70 74 72 70 66 62 62 59 65 63 65 64 65 67 66 65
51 53 50 50 53 54 55 58 62 65 66 73 73 72 70 73 71 73 73 72 74 69 67 66 61 58 54 64 65 60 67 74 69 69 66 62 63 67 65 65 63 64 70 67 67
MSLP
1016.89 1016.55 1016.07 1015.58 1015.15 1014.83 1014.52 1014.21 1013.83 1013.51 1013.09 1012.55 1012.18 1011.80 1011.25 1010.62 1009.16 1008.04 1006.77 1004.16 1004.01 1003.91 1003.88 1003.83 1004.01 1004.02 1003.56 1003.59 1003.48 1003.30 1004.68 1005.32 1005.20 1005.21 1005.23 1005.06 1005.39 1006.47 1006.90 1007.90 1008.50 1008.66 1009.60 1010.70 1011.63
1016.81 1016.45 1016.03 1015.58 1015.17 1014.77 1014.37 1014.15 1013.85 1013.47 1013.11 1012.53 1012.14 1011.64 1011.14 1010.70 1009.58 1007.29 1003.55 1003.13 1003.37 1003.83 1003.81 1004.03 1003.71 1003.66 1003.59 1003.33 1002.99 1003.42 1004.36 1004.40 1004.20 1004.33 1004.92 1005.21 1005.54 1006.56 1007.70 1008.51 1009.20 1009.52 1010.58 1011.42 1012.16
1016.87 1016.48 1016.11 1015.70 1015.22 1014.72 1014.26 1013.96 1013.53 1013.18 1012.88 1012.52 1011.96 1011.49 1010.87 1010.63 1009.29 1005.04 1002.62 1002.76 1002.90 1003.57 1003.85 1003.99 1003.93 1004.00 1003.74 1003.07 1002.67 1002.90 1003.76 1003.94 1003.72 1003.75 1004.42 1005.14 1005.91 1006.58 1007.91 1009.08 1009.06 1009.75 1010.97 1011.95 1012.59
1016.92 1016.48 1016.10 1015.72 1015.22 1014.78 1014.20 1013.78 1013.45 1013.01 1012.67 1012.43 1011.78 1011.38 1010.67 1010.54 1007.70 1003.36 1002.60 1002.75 1003.09 1003.50 1003.77 1003.58 1003.76 1004.00 1003.64 1003.07 1002.14 1002.61 1003.06 1003.09 1003.70 1003.75 1004.19 1004.99 1005.81 1007.08 1007.68 1008.73 1009.23 1009.84 1010.61 1011.73 1012.52
1017.13 1016.60 1015.96 1015.47 1015.08 1014.73 1014.32 1013.84 1013.56 1013.09 1012.58 1012.11 1011.68 1011.20 1010.44 1009.45 1006.01 1002.70 1002.75 1003.00 1003.31 1003.47 1003.49 1003.92 1003.71 1003.83 1003.45 1002.71 1002.11 1002.22 1002.89 1002.91 1003.43 1003.68 1004.35 1004.97 1005.93 1006.76 1008.21 1008.89 1009.41 1009.81 1010.43 1011.13 1011.89
1017.12 1016.66 1016.22 1015.59 1014.99 1014.37 1013.90 1013.53 1013.16 1012.86 1012.50 1012.00 1011.62 1011.24 1010.71 1008.21 1003.54 1002.84 1003.50 1003.37 1003.28 1003.38 1003.13 1003.61 1003.50 1003.22 1003.08 1002.34 1002.22 1001.86 1002.32 1003.12 1003.60 1003.88 1004.48 1005.23 1006.54 1006.67 1008.30 1008.52 1009.15 1009.62 1010.33 1010.87 1011.21
1017.13 1016.60 1016.10 1015.59 1015.02 1014.36 1013.63 1013.05 1012.67 1012.40 1012.20 1011.87 1011.58 1011.26 1010.25 1005.77 1003.35 1003.11 1003.28 1003.32 1002.86 1002.85 1002.96 1002.64 1002.70 1003.30 1002.64 1002.16 1002.00 1001.53 1002.69 1003.63 1003.99 1003.98 1004.91 1005.24 1006.61 1007.31 1007.83 1008.19 1008.80 1009.28 1009.74 1010.25 1010.69
1016.98 1016.50 1015.91 1015.35 1014.80 1014.29 1013.64 1012.84 1012.17 1011.79 1011.67 1011.61 1011.50 1011.08 1008.72 1004.32 1003.87 1003.55 1002.84 1002.63 1002.37 1002.33 1002.61 1002.10 1002.05 1002.52 1002.36 1002.25 1002.01 1002.43 1002.78 1003.93 1004.05 1004.03 1004.77 1004.83 1006.59 1007.35 1007.66 1007.99 1008.56 1008.86 1009.30 1009.97 1010.47
1016.70 1016.22 1015.72 1015.25 1014.60 1013.80 1013.09 1012.31 1011.49 1011.06 1011.25 1011.38 1011.36 1010.69 1007.70 1004.12 1003.61 1002.51 1002.72 1002.71 1002.53 1002.17 1001.90 1001.65 1001.94 1002.49 1002.52 1003.19 1003.40 1003.05 1003.30 1003.48 1003.96 1003.82 1004.04 1004.98 1006.23 1006.88 1007.35 1007.57 1007.85 1008.24 1008.80 1009.27 1009.94
1016.78 1016.15 1015.40 1014.81 1014.36 1013.69 1012.61 1011.50 1010.73 1010.63 1010.81 1010.78 1010.33 1010.11 1006.79 1004.37 1003.08 1002.35 1002.08 1002.45 1002.82 1002.56 1002.34 1002.32 1002.91 1003.16 1003.30 1004.15 1004.45 1003.80 1003.34 1003.04 1003.34 1003.59 1004.10 1004.74 1005.27 1006.18 1006.79 1007.06 1007.37 1007.78 1008.25 1008.71 1009.36
1016.66 1016.00 1015.35 1014.64 1014.06 1013.65 1012.89 1011.48 1011.22 1010.85 1010.30 1009.26 1008.34 1007.38 1005.79 1004.26 1002.96 1002.53 1002.27 1002.59 1002.97 1003.25 1003.66 1003.28 1004.12 1004.05 1003.65 1003.73 1003.59 1003.21 1002.89 1002.70 1002.34 1002.62 1003.40 1004.15 1004.85 1005.52 1006.14 1006.72 1007.08 1007.41 1008.13 1008.53 1008.69
1016.45 1015.79 1015.01 1014.21 1013.70 1013.44 1013.57 1012.27 1009.98 1009.32 1008.94 1007.66 1006.83 1006.33 1004.89 1004.85 1004.60 1002.65 1002.26 1003.15 1003.30 1003.78 1004.04 1004.52 1004.26 1003.29 1003.36 1003.18 1003.13 1002.77 1002.29 1002.20 1001.98 1002.00 1002.98 1004.21 1004.68 1005.38 1005.72 1005.75 1006.17 1007.15 1007.90 1008.86 1009.50
1016.21 1015.60 1014.85 1013.72 1012.98 1013.02 1012.63 1010.86 1008.90 1009.18 1008.94 1006.31 1005.17 1004.89 1004.18 1004.15 1003.95 1002.49 1002.45 1002.70 1003.24 1003.94 1004.10 1004.47 1003.00 1002.92 1003.27 1002.71 1002.71 1002.14 1002.07 1001.85 1001.73 1002.10 1002.88 1004.16 1005.54 1005.89 1005.93 1006.15 1006.58 1007.65 1009.71 1010.43 1011.65
1016.03 1015.45 1014.87 1013.55 1012.70 1012.81 1011.33 1009.06 1008.95 1008.65 1008.88 1005.94 1004.44 1003.07 1003.17 1003.20 1002.99 1001.43 1001.54 1002.39 1003.15 1003.42 1003.96 1003.99 1002.59 1002.87 1002.84 1002.36 1001.86 1001.61 1001.05 1001.33 1001.66 1002.45 1003.59 1003.82 1006.06 1006.27 1006.66 1006.63 1007.42 1008.12 1009.42 1009.87 1009.84
1015.95 1015.41 1015.03 1014.71 1014.14 1012.86 1009.64 1009.03 1008.42 1008.56 1008.19 1004.26 1003.25 1001.57 1001.92 1002.73 1002.28 1001.22 1001.21 1001.90 1002.69 1003.29 1003.84 1003.04 1002.61 1002.50 1002.32 1001.46 1001.20 1001.20 1000.75 1000.68 1001.53 1003.11 1004.00 1004.79 1006.00 1006.94 1007.22 1007.65 1007.92 1008.26 1009.02 1009.01 1008.53
1015.59 1015.20 1014.95 1014.41 1014.09 1011.02 1009.93 1009.10 1008.37 1009.11 1006.74 1003.52 1002.21 1002.02 1002.50 1002.72 1002.28 1001.60 1001.44 1001.87 1002.48 1003.30 1003.50 1003.16 1002.14 1002.06 1001.22 1000.59 1000.72 1000.63 1000.98 1001.57 1002.93 1004.10 1005.25 1005.56 1006.11 1006.86 1006.53 1008.11 1009.29 1008.94 1009.53 1009.14 1008.64
1014.89 1014.29 1014.72 1013.90 1011.76 1010.07 1009.95 1009.68 1009.99 1008.68 1005.53 1003.71 1002.84 1002.44 1002.48 1002.75 1002.73 1002.50 1002.55 1002.70 1003.19 1003.82 1004.03 1003.35 1002.50 1001.57 1001.11 1000.84 1000.39 1001.08 1001.97 1003.52 1004.84 1005.96 1006.40 1005.99 1006.25 1006.27 1005.88 1006.99 1008.06 1009.40 1009.58 1009.59 1009.32
1014.08 1013.10 1012.00 1011.45 1010.74 1010.76 1010.61 1010.77 1010.28 1007.54 1005.93 1004.02 1003.71 1003.28 1003.19 1003.04 1002.96 1002.88 1003.07 1003.52 1003.31 1003.75 1004.30 1003.95 1002.79 1001.42 1000.58 1000.51 1000.73 1001.21 1002.06 1003.90 1005.68 1007.11 1007.11 1006.93 1007.36 1006.76 1008.10 1008.12 1009.01 1009.77 1010.36 1011.05 1012.45
1013.44 1012.19 1011.50 1009.11 1009.98 1010.51 1011.02 1011.22 1009.45 1007.43 1005.60 1005.02 1003.71 1003.40 1003.44 1002.87 1002.64 1003.15 1003.28 1003.27 1002.92 1003.00 1003.82 1003.69 1002.51 1001.00 1000.56 1000.01 1000.44 1001.07 1001.98 1002.73 1005.01 1006.89 1007.71 1008.33 1008.22 1007.40 1008.86 1008.87 1009.46 1011.11 1012.14 1013.26 1012.98
1013.82 1012.76 1010.26 1008.02 1009.12 1009.92 1010.80 1010.38 1008.64 1006.70 1005.70 1005.27 1005.21 1004.02 1004.07 1002.83 1002.78 1002.93 1002.68 1001.88 1002.07 1001.77 1002.15 1002.98 1003.04 1001.40 1000.60 1000.17 999.87 1000.27 1001.10 1003.23 1005.48 1007.25 1008.83 1009.33 1009.20 1009.19 1009.82 1010.93 1011.22 1011.59 1012.36 1012.64 1011.57
1013.69 1012.29 1008.08 1007.70 1008.49 1009.89 1010.49 1009.49 1007.61 1006.33 1005.76 1005.21 1004.79 1004.45 1003.76 1002.71 1002.20 1001.98 1001.93 1000.95 1000.58 1000.99 1001.68 1002.51 1003.14 1001.68 1001.50 1001.04 1000.96 1000.69 1001.38 1003.15 1005.06 1006.72 1008.50 1009.77 1010.02 1009.47 1010.10 1010.97 1011.13 1011.71 1012.21 1011.84 1011.78
1014.01 1011.83 1008.06 1007.50 1008.88 1009.66 1009.63 1008.19 1006.92 1005.77 1005.24 1005.15 1003.94 1003.43 1002.80 1001.95 1001.52 1001.45 1000.76 1000.03 999.30 999.72 1001.20 1001.74 1002.69 1003.02 1002.19 1000.71 1000.56 1000.38 1001.06 1002.60 1005.03 1007.08 1008.57 1009.45 1009.78 1009.62 1009.87 1010.47 1011.06 1012.18 1012.28 1011.50 1011.26
1014.88 1012.01 1008.06 1007.85 1008.65 1009.27 1008.57 1007.52 1006.61 1005.49 1004.68 1004.10 1003.20 1002.52 1001.81 1001.45 1001.28 1000.68 999.64 998.46 998.52 999.39 1000.04 1001.23 1002.46 1003.32 1002.87 1001.76 1000.53 1000.64 1000.92 1002.29 1004.12 1006.29 1008.28 1009.47 1009.47 1009.33 1009.72 1010.41 1011.35 1011.79 1012.44 1012.00 1011.45
1015.39 1012.83 1009.62 1008.69 1008.40 1008.72 1008.73 1007.68 1006.32 1004.78 1003.89 1003.28 1002.52 1001.92 1001.50 1001.04 1000.92 1000.52 999.97 998.52 997.79 998.53 998.76 1000.04 1002.04 1002.96 1003.22 1002.56 1001.82 1001.30 1001.32 1002.16 1003.39 1006.09 1008.12 1008.71 1008.93 1009.16 1009.64 1009.86 1010.85 1011.93 1012.61 1012.77 1013.31
1015.35 1013.26 1011.24 1010.14 1009.52 1009.39 1008.88 1007.82 1006.47 1005.20 1003.58 1002.79 1002.11 1001.58 1001.28 1000.98 1000.74 1000.37 999.69 999.02 997.72 997.57 998.89 999.91 1002.12 1002.59 1002.52 1002.13 1002.03 1001.65 1001.26 1002.08 1003.22 1004.35 1005.84 1007.58 1008.38 1008.36 1009.14 1009.36 1010.36 1011.00 1011.78 1012.11 1012.68
1015.40 1014.13 1012.60 1011.52 1010.23 1009.44 1008.61 1007.92 1006.78 1005.20 1004.40 1002.56 1002.33 1001.23 1000.70 1000.74 1000.76 1000.35 1000.04 999.61 999.08 997.96 998.78 999.82 1001.64 1002.59 1003.08 1002.21 1001.86 1001.52 1001.51 1002.04 1002.62 1004.30 1004.95 1006.23 1007.81 1007.90 1008.62 1009.85 1010.46 1011.16 1011.62 1012.59 1012.94
1015.61 1014.79 1014.09 1012.06 1010.95 1010.19 1009.52 1008.59 1007.19 1006.40 1003.69 1002.89 1002.15 1001.37 1000.65 999.97 999.88 999.70 999.59 999.22 999.35 999.54 999.25 1000.17 1001.51 1003.04 1003.42 1002.60 1002.29 1002.23 1002.31 1002.17 1002.54 1003.65 1004.44 1005.78 1006.89 1007.66 1008.78 1009.56 1010.22 1010.86 1011.44 1012.39 1012.75
Wind_Speed
15 15 16 16 17 18 17 17 17 16 17 17 18 18 17 19 21 2 8 12 6 4 1 5 3 3 6 5 6 3 6 4 5 5 4 7 10 10 11 20 4 4 11 18 13
15 15 16 17 18 18 18 17 16 16 16 17 17 18 17 17 4 8 13 12 9 2 5 5 10 9 4 5 2 4 4 1 4 6 5 11 18 11 11 16 16 19 15 18 14
16 17 17 17 18 19 19 19 18 18 17 16 17 17 17 13 5 10 3 18 8 4 2 2 3 2 3 4 4 5 6 6 7 13 8 10 17 8 20 14 21 21 22 18 13
17 18 18 18 19 19 20 20 19 19 18 16 16 17 20 1 4 5 3 4 7 1 4 5 4 6 6 5 4 8 10 7 2 10 8 7 10 8 12 10 17 20 23 19 15
16 17 18 19 20 19 19 20 18 17 17 16 15 16 5 2 11 9 4 5 4 2 6 1 6 1 1 5 3 11 8 8 6 14 12 13 11 14 16 16 17 18 19 20 16
14 14 15 17 19 20 20 20 20 17 15 15 13 15 2 4 5 4 5 0 4 5 4 6 7 5 11 4 4 7 12 11 10 10 10 15 17 8 15 17 18 17 18 16 17
16 15 16 17 19 20 22 22 21 18 14 12 11 4 1 17 5 11 5 4 4 6 5 5 5 3 7 8 7 10 8 9 10 10 7 13 4 12 18 17 16 18 18 16 16
17 17 18 19 20 20 21 22 23 18 12 8 3 1 10 7 5 11 3 7 6 7 5 11 9 6 1 2 9 4 6 8 10 12 7 7 6 16 17 18 16 15 14 16 15
18 18 19 19 20 21 22 25 22 15 7 5 0 2 13 13 3 9 7 5 7 6 6 9 4 2 6 4 6 6 7 6 5 12 8 3 6 16 17 16 15 14 12 13 17
17 18 19 20 19 20 25 23 9 7 3 5 5 4 5 5 6 4 3 3 3 6 8 5 6 4 4 6 4 5 4 5 7 9 10 6 6 19 18 16 15 11 11 14 14
18 19 20 20 20 17 14 6 5 3 0 9 7 6 7 6 6 4 6 1 2 3 2 8 3 8 11 6 8 13 6 4 4 10 8 12 8 20 19 15 14 12 13 15 17
18 20 22 23 21 19 2 0 6 4 9 12 17 11 13 5 7 9 8 6 5 6 2 5 8 14 7 11 10 11 3 6 9 12 6 8 11 17 18 18 17 16 15 11 7
19 20 22 26 28 3 4 8 6 6 3 10 9 8 6 9 8 12 11 8 4 5 5 7 16 4 6 14 10 10 5 8 8 9 5 7 4 10 9 7 11 9 15 16 5
20 20 21 29 2 5 6 4 6 6 5 10 4 9 5 7 7 8 10 8 4 10 6 7 11 12 9 11 5 8 7 11 8 7 7 4 5 5 3 6 7 12 16 20 14
20 19 16 12 6 4 6 11 10 5 4 3 3 2 7 9 4 4 4 4 8 6 8 13 4 6 7 17 8 12 9 4 3 4 4 5 7 6 3 0 9 15 19 16 13
20 18 17 0 2 10 12 14 5 7 7 4 7 7 6 3 5 5 4 5 2 5 4 9 5 5 12 16 6 9 3 8 6 4 4 5 7 4 6 6 4 9 13 17 22
22 21 10 3 7 1 6 5 7 4 6 0 5 6 5 7 6 3 1 3 7 5 5 8 10 8 5 5 7 1 8 4 6 6 7 6 5 7 5 8 11 13 13 14 14
23 27 5 8 5 4 3 7 3 4 6 5 7 1 7 6 7 4 3 4 6 5 4 6 11 4 4 8 9 8 9 8 5 3 6 3 1 4 7 11 10 12 10 6 5
25 3 5 6 11 2 6 3 9 7 3 7 11 5 6 7 5 8 8 7 10 11 10 4 9 7 4 7 10 7 1 7 7 3 5 1 4 6 15 9 9 11 13 11 9
4 5 6 7 12 4 6 7 6 4 7 6 2 3 6 8 8 8 8 7 8 13 7 7 5 6 9 3 7 9 6 2 4 2 1 2 2 4 8 9 14 15 16 9 4
1 5 4 11 4 6 4 8 5 6 5 2 5 9 7 7 9 7 9 8 9 9 10 7 6 21 3 3 9 3 1 5 7 6 7 4 6 3 4 12 15 14 16 8 4
4 2 1 7 5 2 3 5 4 9 6 7 6 11 9 3 3 6 12 11 12 13 11 9 7 8 13 11 5 7 11 7 6 3 3 4 5 2 6 11 17 15 17 12 3
3 4 4 4 3 3 6 7 5 9 9 5 6 11 11 2 3 5 6 13 9 10 12 8 3 4 12 10 6 3 4 6 8 5 3 7 7 2 7 7 10 18 12 9 13
3 4 4 1 2 3 2 7 7 7 11 9 10 4 6 2 4 5 4 8 11 11 12 12 5 9 10 9 3 3 3 3 9 6 7 5 5 5 4 5 6 14 10 9 7
1 5 2 4 5 6 2 6 16 15 6 2 8 5 6 4 8 5 2 8 5 8 8 10 7 4 5 5 5 5 6 5 5 9 8 9 9 12 12 11 7 9 5 7 6
1 4 6 4 5 4 2 6 17 16 7 16 3 16 7 6 9 13 3 1 9 3 6 1 4 5 4 5 7 6 2 6 6 5 9 14 2 5 4 7 7 9 8 6 6
4 5 2 5 5 5 4 7 9 12 8 9 12 12 10 11 4 9 9 9 8 6 5 7 7 5 5 4 3 5 3 5 5 5 8 10 6 7 7 10 15 12 11 10 8
Wind_Direction
352 349 347 341 342 340 340 340 338 333 329 327 327 326 325 326 313 225 255 225 185 93 303 285 229 302 268 252 172 97 78 132 165 128 175 91 85 128 89 130 207 172 137 155 139
350 349 346 343 339 336 336 336 333 330 330 326 326 325 322 333 310 268 243 252 241 70 312 343 326 354 7 257 213 115 100 116 132 152 132 123 113 113 108 105 100 114 120 136 148
353 350 346 343 339 336 334 334 334 331 329 327 325 324 318 329 326 254 259 231 228 171 282 285 262 344 280 260 197 145 146 185 112 91 119 127 117 124 115 125 144 142 141 150 156
350 348 345 341 338 338 333 332 332 327 326 326 325 324 317 220 229 265 285 127 125 102 310 326 3 353 326 317 197 111 151 148 215 95 89 123 128 108 111 153 143 145 149 156 166
350 348 343 340 337 333 330 326 325 323 321 323 327 328 352 341 252 261 252 104 129 198 229 62 316 242 86 268 124 122 150 137 152 123 122 121 120 118 116 140 150 150 156 164 169
343 342 337 330 330 328 325 323 321 318 316 316 323 322 339 274 260 302 338 200 223 222 251 151 234 240 275 278 184 182 147 127 150 147 134 117 125 109 149 151 159 162 173 172 178
342 335 334 335 332 328 323 319 316 311 306 305 312 309 300 236 303 331 302 228 242 205 266 247 237 359 303 331 11 152 118 127 162 150 125 121 73 136 162 160 170 179 178 178 183
342 338 335 333 329 324 318 314 310 300 291 285 311 337 256 258 302 304 279 309 247 245 212 267 280 242 155 318 353 135 91 141 211 153 191 87 204 161 171 165 183 189 182 181 184
336 332 330 329 327 324 319 312 302 288 252 222 270 133 266 305 267 248 177 251 313 287 265 265 39 272 18 57 0 359 165 194 192 207 152 162 139 174 177 177 189 186 188 177 178
335 330 328 325 326 325 321 307 287 321 190 206 257 351 282 276 265 219 247 227 279 346 347 2 22 4 19 76 244 261 223 179 190 216 177 188 182 170 182 182 199 166 170 163 175
330 328 324 323 324 326 341 359 15 14 130 208 205 247 283 279 278 253 224 226 9 41 244 299 16 252 261 229 250 276 244 246 213 186 152 194 158 177 182 187 188 175 174 170 178
331 328 325 320 318 319 266 204 225 159 303 232 245 251 265 66 309 300 118 153 135 221 195 335 234 245 256 268 268 269 153 264 288 181 125 174 200 179 186 194 187 178 182 168 182
330 329 328 320 319 104 191 236 285 35 305 279 202 219 224 141 219 259 148 185 168 212 214 194 243 259 247 277 272 278 183 233 208 162 202 122 9 189 206 214 185 168 93 89 13
328 328 332 328 22 330 261 294 319 183 38 276 212 258 193 168 277 223 182 144 203 202 224 229 264 246 267 271 275 268 220 201 230 123 202 174 222 213 349 261 132 131 123 136 165
323 324 329 324 295 303 260 335 314 51 354 237 206 221 145 152 241 236 174 82 192 213 123 248 273 273 266 250 258 249 248 308 151 169 55 355 76 266 55 230 146 148 154 175 182
316 317 326 262 234 245 317 303 37 48 260 287 152 161 130 169 281 343 169 88 188 221 257 244 285 189 236 265 249 276 257 36 56 87 35 269 126 267 170 143 309 154 159 177 187
312 306 302 243 233 23 320 34 50 157 307 203 192 160 165 179 247 177 203 203 186 157 252 307 281 278 228 281 321 41 61 1 1 10 227 228 82 207 247 99 161 159 190 196 206
313 311 243 205 227 264 30 58 174 248 269 301 24 346 184 159 244 220 202 230 259 136 122 195 294 198 242 184 214 228 146 152 192 205 263 31 50 279 67 73 127 151 165 192 345
319 314 262 243 187 108 79 96 208 213 297 16 344 125 259 230 187 160 206 210 221 181 192 183 267 292 274 251 144 252 149 191 117 132 74 251 330 312 69 60 56 100 83 59 20
312 330 261 134 151 101 81 230 223 254 7 32 284 273 338 241 174 155 190 216 218 192 164 224 293 248 291 358 283 163 172 80 8 117 90 351 145 236 71 90 82 90 89 94 67
2 341 267 139 120 55 179 229 280 252 311 278 272 288 254 244 209 176 216 257 204 206 157 152 128 274 7 175 247 273 348 65 116 122 153 150 252 244 168 144 130 120 123 155 178
334 331 208 145 77 189 196 209 254 264 279 284 255 248 226 257 254 233 206 203 195 187 194 192 160 232 240 269 222 228 193 156 135 239 79 126 259 169 244 158 136 118 125 121 97
331 270 283 62 155 248 281 269 244 268 260 255 276 290 296 180 327 237 228 234 214 163 184 171 241 264 316 343 357 214 166 125 101 78 186 127 253 127 179 177 87 132 142 173 150
341 343 310 8 182 174 350 288 271 276 273 241 261 272 279 341 166 281 284 289 206 193 198 122 124 162 212 215 210 24 70 115 120 120 156 204 187 237 227 228 128 119 135 166 157
183 262 30 303 334 341 316 272 291 295 265 323 301 223 263 323 340 282 296 339 260 196 120 124 151 149 198 208 209 189 80 150 143 164 136 199 181 212 193 202 161 129 116 97 114
5 18 341 285 279 288 251 299 278 302 238 287 220 301 280 245 197 281 295 81 264 74 126 10 172 129 222 281 251 153 226 153 89 93 76 144 169 220 140 107 147 149 128 150 181
320 337 90 283 342 16 5 321 318 336 290 258 285 301 284 261 254 241 235 236 224 268 182 117 128 100 243 191 359 18 10 233 124 102 156 140 154 138 148 149 164 156 148 173 184